Wind_Speed
12 16 10 7 2 2 5 6 11 7 8 9 9 6 4 4 3 3 5 5 6 6 9 10 10 9 7 6 6 7 8 9 8
15 20 12 4 7 4 2 5 11 11 9 11 11 10 8 6 4 2 3 6 7 9 10 13 12 10 9 9 8 7 8 7 7
16 12 7 4 6 7 8 7 9 9 7 7 8 8 7 6 4 1 2 5 6 9 10 13 15 14 11 12 11 9 10 9 9
12 13 7 4 3 1 4 4 5 5 4 3 3 4 2 1 1 3 5 7 9 11 14 17 19 18 16 16 14 14 14 13 12
13 9 1 4 5 4 2 3 3 1 1 2 5 4 4 5 7 10 11 12 15 18 19 21 22 22 20 20 17 15 16 19 19
13 7 4 3 3 5 7 11 12 11 12 14 11 11 12 13 14 15 17 19 21 25 26 28 25 19 22 20 21 18 16 15 20
14 11 12 12 11 10 12 12 13 13 15 17 16 19 20 21 23 24 25 26 26 30 32 35 35 22 16 18 22 28 18 15 20
12 15 16 15 15 14 13 14 17 20 21 22 22 22 21 21 20 23 25 29 31 31 32 36 34 20 32 30 29 25 17 20 18
8 9 8 6 10 11 7 6 9 9 10 12 16 20 22 25 27 28 32 34 34 35 35 37 33 32 33 31 32 27 23 26 24
7 7 7 3 4 6 11 14 17 16 12 11 13 17 20 22 25 28 29 32 32 30 30 30 31 31 33 32 31 27 24 27 30
6 2 3 7 10 14 18 18 17 15 12 11 11 12 14 15 17 19 21 23 26 28 31 32 34 34 32 31 30 27 28 29 35
6 4 6 10 15 17 18 17 15 14 13 12 13 14 15 17 18 19 19 19 19 19 21 23 25 28 28 26 26 28 29 28 28
9 11 12 13 15 18 18 16 14 12 13 12 13 15 16 15 15 15 15 15 15 18 21 22 19 17 17 18 20 22 19 19 25
7 13 14 15 18 19 18 14 12 12 10 12 14 15 16 16 15 16 16 17 17 18 18 18 18 17 17 17 17 11 13 15 8
4 10 14 17 19 19 14 13 11 10 11 14 14 13 14 13 12 14 15 15 17 18 19 19 17 17 17 19 20 17 15 10 10
5 7 12 15 18 17 15 10 10 11 14 14 13 14 11 10 11 13 13 15 16 15 17 16 17 17 17 19 19 18 16 16 16
7 7 12 16 17 16 11 10 10 13 13 12 13 11 10 10 11 12 13 14 13 15 15 17 17 17 18 19 19 19 18 16 14
8 8 11 17 18 15 12 10 11 12 11 12 12 9 9 9 10 10 12 13 14 16 19 18 17 19 21 21 19 18 17 18 17
8 8 11 16 17 13 12 12 13 13 13 13 10 9 9 10 10 10 12 13 14 17 17 16 16 21 23 20 18 18 17 17 17
11 9 11 15 17 13 11 12 14 13 14 13 12 10 10 11 12 15 16 14 17 19 19 20 21 20 18 18 17 18 17 16 15
Wind_Direction
137 149 142 140 6 261 319 14 61 57 41 54 58 66 49 30 16 322 305 299 296 306 296 294 303 330 315 318 317 336 338 346 349
137 139 146 164 114 176 84 67 64 76 67 62 62 66 73 79 83 46 310 303 298 298 291 294 294 302 301 291 302 310 314 324 331
139 119 109 125 108 103 83 81 77 84 82 78 79 71 73 73 72 32 292 277 274 268 267 267 275 283 280 281 280 282 287 297 304
135 139 143 143 169 122 108 133 143 127 134 127 102 104 89 51 279 244 262 278 275 263 264 261 265 266 265 265 267 271 277 284 284
132 140 97 177 220 281 309 303 269 259 264 282 281 257 265 263 285 292 286 275 271 275 278 274 274 276 268 269 269 280 284 289 292
124 113 124 191 254 303 277 291 313 311 311 313 309 293 295 298 295 287 287 288 293 297 288 284 276 269 271 273 275 267 263 276 286
146 159 155 188 203 239 259 265 278 280 271 293 299 302 303 301 302 304 306 299 296 297 295 292 274 241 292 282 294 288 262 261 279
188 197 198 210 224 250 280 285 294 281 278 281 288 289 290 294 293 289 287 287 289 295 294 298 322 264 312 298 308 300 272 262 275
204 213 234 244 258 279 285 302 311 302 287 283 276 275 278 280 284 284 288 291 291 293 295 297 299 293 294 293 294 296 282 266 263
152 174 203 232 306 321 332 332 326 322 320 290 273 269 274 279 281 286 289 292 295 299 299 296 294 292 289 290 291 289 277 264 265
129 107 337 341 336 336 338 337 336 337 336 328 320 311 307 306 304 304 304 304 303 302 301 301 302 301 300 300 297 292 285 276 275
66 18 357 348 343 344 339 338 339 338 338 339 334 328 322 320 319 316 316 316 314 312 313 313 309 308 308 304 299 292 284 277 275
42 12 355 347 342 343 342 341 341 344 340 337 334 329 329 331 329 327 330 332 331 331 327 325 323 321 315 311 311 305 302 289 278
27 5 348 343 343 340 339 336 336 340 345 337 332 335 333 338 343 345 350 349 349 354 356 360 357 356 356 355 353 325 334 307 355
346 341 338 337 338 335 337 335 340 342 335 333 338 343 344 353 357 358 358 357 1 3 8 10 13 19 20 26 26 24 29 14 335
279 326 326 332 339 339 339 342 338 334 336 338 346 348 355 356 358 3 2 0 1 8 11 10 10 12 14 16 24 28 29 35 38
273 314 334 340 345 340 340 335 333 334 334 335 347 348 348 355 1 356 353 353 355 352 355 355 354 355 354 354 354 356 359 5 9
262 302 333 342 346 341 334 329 330 331 333 336 339 344 348 353 356 354 347 341 345 343 342 342 348 350 348 345 342 340 339 337 336
256 291 330 344 344 335 325 322 324 326 329 329 334 331 336 336 344 349 344 342 341 338 341 349 349 347 341 336 335 333 332 330 329
254 290 325 341 341 332 319 314 317 326 325 325 323 323 322 327 334 339 335 331 330 330 328 328 331 336 335 332 331 331 334 333 326
Height
3192 3194 3195 3198 3200 3200 3200 3200 3200 3200 3200 3199 3199 3199 3199 3199 3199 3200 3200 3201 3201 3200 3199 3199 3199 3199 3198 3197 3197 3195 3194 3192 3191
3193 3195 3198 3200 3200 3201 3201 3201 3201 3201 3201 3201 3200 3199 3199 3199 3199 3198 3198 3198 3198 3197 3197 3196 3195 3195 3195 3194 3193 3193 3192 3191 3190
3194 3197 3200 3200 3201 3202 3202 3202 3202 3202 3201 3200 3200 3200 3199 3199 3198 3198 3197 3197 3196 3195 3192 3191 3189 3188 3188 3188 3188 3189 3189 3189 3188
3193 3196 3198 3200 3201 3202 3202 3202 3202 3201 3201 3200 3200 3199 3199 3198 3197 3195 3194 3193 3193 3191 3190 3189 3187 3185 3184 3184 3184 3184 3185 3185 3186
3194 3196 3198 3200 3201 3201 3201 3201 3201 3201 3201 3201 3200 3199 3198 3198 3196 3195 3193 3191 3189 3187 3187 3186 3186 3187 3185 3182 3182 3181 3182 3181 3183
3196 3196 3199 3200 3200 3200 3200 3198 3198 3198 3198 3197 3197 3197 3196 3194 3192 3190 3188 3186 3186 3185 3181 3178 3177 3181 3181 3179 3179 3174 3173 3174 3176
3195 3197 3197 3197 3197 3198 3198 3198 3197 3197 3195 3194 3192 3191 3190 3188 3187 3184 3182 3179 3178 3175 3174 3162 3150 3154 3170 3171 3172 3169 3164 3165 3168
3194 3195 3196 3196 3196 3197 3198 3198 3198 3196 3194 3193 3191 3190 3187 3186 3183 3181 3177 3173 3173 3171 3167 3161 3148 3137 3159 3162 3164 3161 3157 3157 3160
3191 3194 3195 3196 3198 3198 3198 3198 3196 3195 3194 3192 3190 3188 3185 3183 3180 3177 3172 3169 3168 3166 3163 3160 3157 3160 3159 3159 3156 3151 3150 3149 3151
3190 3193 3195 3195 3196 3195 3194 3192 3190 3189 3188 3186 3185 3184 3182 3179 3176 3174 3171 3166 3162 3160 3156 3154 3153 3152 3151 3149 3145 3142 3142 3141 3141
3190 3192 3193 3193 3192 3191 3189 3187 3185 3183 3182 3181 3179 3178 3176 3174 3172 3169 3165 3161 3157 3153 3151 3148 3143 3140 3137 3135 3133 3132 3131 3132 3131
3188 3189 3190 3189 3188 3187 3186 3184 3182 3181 3179 3178 3176 3174 3172 3170 3167 3163 3160 3156 3152 3148 3145 3142 3139 3134 3130 3127 3125 3124 3123 3123 3123
3187 3187 3187 3187 3187 3185 3183 3181 3179 3178 3177 3175 3173 3171 3168 3166 3163 3159 3156 3153 3150 3146 3142 3137 3133 3130 3127 3124 3122 3119 3117 3116 3115
3185 3186 3185 3184 3183 3182 3181 3179 3178 3176 3175 3173 3171 3168 3165 3162 3159 3156 3153 3150 3147 3144 3139 3135 3131 3128 3124 3121 3118 3117 3116 3114 3111
3184 3184 3183 3183 3182 3181 3179 3177 3175 3174 3173 3170 3168 3166 3163 3161 3158 3155 3152 3149 3146 3143 3140 3136 3132 3128 3125 3122 3118 3116 3115 3113 3111
3183 3183 3183 3182 3180 3177 3175 3174 3173 3171 3169 3168 3166 3164 3162 3160 3157 3154 3152 3149 3146 3144 3140 3138 3135 3132 3128 3125 3122 3119 3117 3114 3112
3179 3180 3180 3178 3177 3175 3173 3172 3171 3169 3167 3165 3164 3162 3160 3158 3156 3153 3151 3148 3146 3144 3141 3138 3135 3132 3129 3126 3123 3120 3118 3115 3113
3176 3177 3176 3175 3174 3172 3170 3170 3169 3167 3165 3163 3161 3160 3158 3156 3154 3152 3150 3148 3146 3143 3139 3137 3134 3131 3128 3125 3122 3119 3116 3114 3112
3173 3173 3173 3172 3171 3169 3168 3166 3166 3164 3162 3160 3158 3156 3154 3153 3152 3151 3149 3146 3144 3141 3137 3135 3132 3130 3126 3123 3120 3117 3114 3112 3109
3168 3169 3169 3168 3167 3166 3165 3164 3162 3161 3159 3157 3154 3153 3151 3150 3148 3146 3145 3144 3141 3138 3135 3133 3131 3128 3123 3121 3118 3115 3112 3109 3106